STARLINK-34187 (63956 NORAD) Tracking and Keplerian Element Data

This shows tracking and keplerian element data for the satellite.

Feedback or suggestion? Click here.




ElementValue
Catalog63956
NameSTARLINK-34187
Epoch Orbit3516
Epoch Day354.11623298
Epoch Year2025
RAAN265.8664
Inclination43.0015
Eccentricity0.0001791
Argument of Perigee275.7541
Mean Anonmoly84.3106
Mean Motion15.27587408
Decay Rate0.00012256
L11 63956U 25099E 25354.11623298 .00012256 00000+0 45404-3 0 9990
L22 63956 43.0015 265.8664 0001791 275.7541 84.3106 15.27587408 35164



Live tracking and technical data element details for STARLINK-34187 (NORAD 63956). STARLINK-34187 can be tracked NOW for your location showing map with azimuth and elevation plus other details from your city location.







IsCatalogInMostPopularTable: catalog: 63956, numindb: 6
Update: records affected: 1



GetName: 63956 STARLINK-34187

Hit Count: updated at: Sat, 11 Apr 2026 21:39:08 GMT